Location: Maiden
(35.5760°N, 81.2120°W)
Time: 02:42:54
(UTC-04:00)

ERBS - Pass Details

Date: 02 August 2020
Orbit: 408 x 426 km, 57.0° (Epoch: 11 August)

Event Time Altitude Azimuth Distance (km) Brightness Sun altitude
Rises 21:03:52 0° 189° (S) 2,344 5.8 -7.6°
Reaches altitude 10° 21:06:18 10° 171° (S) 1,482 4.7 -8.0°
Maximum altitude 21:08:47 20° 122° (ESE) 1,028 3.6 -8.4°
Drops below altitude 10° 21:11:16 10° 74° (ENE) 1,483 4.6 -8.9°
Sets 21:13:42 0° 56° (NE) 2,345 5.8 -9.3°
